[keps] orb12061.2l.amsat

Ray Hoad ray.hoad at mypbmail.com
Thu Mar 1 18:44:26 PST 2012


SB KEPS @ AMSAT  $ORB12061.N
2Line Orbital Elements 12061.AMSAT

HR AMSAT ORBITAL ELEMENTS FOR AMATEUR SATELLITES IN NASA FORMAT
FROM WA5QGD FORT WORTH,TX March 1, 2012
Send SUBSCRIBE KEPS/UNSUBSCRIBE KEPS to majordomo at amsat.org only
BID: ORB12061.N

DECODE 2-LINE ELSETS WITH THE FOLLOWING KEY:
1 AAAAAU 00  0  0 BBBBB.BBBBBBBB  .CCCCCCCC  00000-0  00000-0 0  DDDZ
2 AAAAA EEE.EEEE FFF.FFFF GGGGGGG HHH.HHHH III.IIII JJ.JJJJJJJJKKKKKZ
KEY: A-CATALOGNUM B-EPOCHTIME C-DECAY D-ELSETNUM E-INCLINATION F-RAAN
G-ECCENTRICITY H-ARGPERIGEE I-MNANOM J-MNMOTION K-ORBITNUM Z-CHECKSUM

TO ALL RADIO AMATEURS BT

AO-07
1 07530U 74089B   12060.60976882 -.00000027  00000-0  10000-3 0 03200
2 07530 101.4008 062.0262 0012068 134.9699 225.2353 12.53587865706440
FO-29
1 24278U 96046B   12060.92162850  .00000031  00000-0  71128-4 0 07861
2 24278 098.5745 175.7823 0350131 309.7556 047.3219 13.52977759767319
SO-33
1 25509U 98061B   12060.75459216  .00000210  00000-0  29756-4 0 01766
2 25509 031.4341 227.2765 0352975 334.4539 023.9100 14.28671921697134
RS-22
1 27939U 03042A   12061.41734159  .00000512  00000-0  10635-3 0  1317
2 27939 097.8213 267.7101 0012476 245.4717 114.5182 14.63913083450117
VO-52
1 28650U 05017B   12060.61535433  .00001207  00000-0  15494-3 0   372
2 28650 097.6105 096.8339 0027475 039.4636 320.8570 14.82701029368887
HO-68
1 36122U 09072B   12061.28486997 -.00000044  00000-0  00000 0 0  2457
2 36122 100.3763 122.7528 0007579 357.9692 002.1411 13.16293437106197
UO-11
1 14781U 84021B   12060.97579699  .00000288  00000-0  44641-4 0 08020
2 14781 097.9686 121.3820 0009709 029.7279 330.4483 14.80322965503920
AO-16
1 20439U 90005D   12060.85795645  .00000087  00000-0  47987-4 0 04179
2 20439 098.4188 007.3301 0011603 117.1176 243.1193 14.32020640154495
LO-19
1 20442U 90005G   12060.96733881  .00000187  00000-0  84986-4 0 03348
2 20442 098.3841 010.8262 0012583 109.2130 251.0417 14.32241709154699
AO-27
1 22825U 93061C   12060.89062621  .00000032  00000-0  29514-4 0   442
2 22825 098.5632 005.4526 0007748 234.7967 125.2510 14.29432744961002
IO-26
1 22826U 93061D   12060.84215552  .00000084  00000-0  49638-4 0 08018
2 22826 098.5582 005.8042 0008126 230.1907 129.8559 14.29703803961122
GO-32
1 25397U 98043D   12060.50151316  .00000001  00000-0  18554-4 0 07166
2 25397 098.3531 044.6213 0000587 201.6337 158.4834 14.23258781708569
NO-44
1 26931U 01043C   12060.40649451 -.00000139  00000-0 -21956-4 0 09825
2 26931 067.0526 040.6939 0006500 277.5540 082.4823 14.29763051543693
SO-50
1 27607U 02058C   12060.69588529  .00000269  00000-0  62059-4 0 07012
2 27607 064.5580 264.8953 0085162 269.6965 089.4355 14.72228417493990
CO-55
1 27844U 03031E   12060.55653617  .00000174  00000-0  10067-3 0 03217
2 27844 098.7054 070.5104 0009599 171.7752 188.3593 14.20967497449462
CO-57
1 27848U 03031J   12060.54145164  .00000155  00000-0  92336-4 0 02705
2 27848 098.7140 069.7823 0009375 175.7139 184.4116 14.20726656449407
AO-51
1 28375U 04025K   12060.47568902  .00000167  00000-0  62697-4 0 02087
2 28375 098.1326 030.8891 0084556 010.7862 349.5121 14.40900887403112
CP3
1 31129U 07012N   12060.55298678  .00000471  00000-0  11690-3 0 01056
2 31129 097.8885 074.7236 0102854 100.9806 260.2992 14.52902702258205
CO-65
1 32785U 08021C   12060.67114215  .00001077  00000-0  13973-3 0 02424
2 32785 097.8144 124.2437 0015539 059.1568 301.1180 14.82710110207682
PRISM
1 33493U 09002B   12061.41670056  .00002195  00000-0  27468-3 0  4725
2 33493 098.1541 199.5648 0018167 287.0134 072.9157 14.83258962167779
SOHLA-1
1 33496U 09002E   12060.93918549  .00000337  00000-0  64690-4 0 06633
2 33496 098.0934 173.4692 0007209 032.2895 327.8752 14.69876304166341
SO-67
1 35870U 09049F   12061.33017231  .00003464  00000-0  15077-3 0  7296
2 35870 097.2471 100.8648 0002141 149.0078 339.7423 15.22875381136192
TISAT-1
1 36799U 10035E   12061.36347174  .00001363  00000-0  18035-3 0  7461
2 36799 098.0713 136.9059 0015525 157.7773 202.4117 14.81555498 88522
STUDSAT
1 36801U 10035G   12060.90363350  .00003148  00000-0  39166-3 0 03645
2 36801 098.0784 136.7406 0013537 146.7822 213.4252 14.83201799088461
FO-69
1 37227U 0        12046.04422040  .00000330  00000-0  54773-4 0 01033
2 37227 071.9672 223.6606 0017759 195.0744 164.9889 14.76923927017912
FO-70
1 37380U 0        12046.50349291  .00000331  00000-0  55150-4 0 01064
2 37380 071.9705 223.0530 0018152 191.1227 168.9536 14.76682035017870
NOAA-10
1 16969U 86073A   12060.94085093  .00000009  00000-0  21146-4 0 08392
2 16969 098.5928 091.8624 0012005 187.8761 172.2233 14.27529803324426
NOAA-11
1 19531U 88089A   12060.81267206 -.00000163  00000-0 -61987-4 0 08360
2 19531 098.7349 148.2399 0010984 169.3979 190.7434 14.14953325209188
NOAA-12
1 21263U 91032A   12060.95321202 -.00000025  00000-0  82514-5 0 03371
2 21263 098.7376 083.0857 0014126 152.2211 207.9726 14.25479294081138
MET-3/5
1 21655U 91056A   12060.81850878  .00000051  00000-0  10000-3 0 03505
2 21655 082.5545 228.7328 0012539 231.1640 128.8414 13.17036128987632
MET-2/21
1 22782U 93055A   12060.76108719 -.00000064  00000-0 -71740-4 0 03518
2 22782 082.5473 118.5476 0024178 096.1341 264.2565 13.83676224934176
OKEAN-4
1 23317U 94066A   12060.92454447  .00000862  00000-0  10128-3 0 08225
2 23317 082.5417 132.4045 0021436 353.9816 006.1141 14.83603925938751
NOAA-14
1 23455U 94089A   12060.91611436  .00000061  00000-0  55376-4 0 08197
2 23455 098.8329 145.7633 0008611 269.4711 090.5472 14.13879126885498
NOAA-15
1 25338U 98030A   12060.57866446  .00000099  00000-0  60824-4 0 01664
2 25338 098.6834 048.5592 0011527 066.5202 293.7200 14.25033997717383
RESURS
1 25394U 98043A   12060.93420820  .00000018  00000-0  25561-4 0 00302
2 25394 098.3133 054.9094 0001061 155.8706 204.2524 14.24274925708995
FENGYUN1
1 25730U 99025A   12060.95472280  .00001073  00000-0  64046-3 0 05606
2 25730 098.8389 021.8734 0020309 317.8695 042.0913 14.09270341659361
OKEAN-0
1 25860U 99039A   12060.93002314  .00000390  00000-0  66657-4 0 05770
2 25860 097.9221 025.8789 0000491 084.7275 275.3987 14.74096517678623
NOAA-16
1 26536U 00055A   12060.60548578  .00000010  00000-0  30496-4 0 06505
2 26536 099.1093 100.9829 0010948 032.9809 327.2045 14.12707651589703
NOAA-17
1 27453U 02032A   12060.63598324  .00000085  00000-0  54386-4 0 06166
2 27453 098.3486 093.1001 0012615 113.1506 247.1024 14.24397733503301
NOAA-18
1 28654U 05018A   12060.69179693  .00000091  00000-0  74782-4 0 00935
2 28654 099.0344 017.9530 0015141 099.1053 261.1811 14.11610661349250
NOAA-19
1 33591U 09005A   12060.67531414  .00000451  00000-0  27366-3 0 02827
2 33591 098.8554 001.8620 0013741 331.3758 028.6649 14.11300382157703
HUBBLE
1 20580U 90037B   12061.24282834  .00001756  00000-0  11752-3 0  9535
2 20580 028.4698 129.7927 0003125 355.7915 004.2744 15.02224665998489
ISS
1 25544U 98067A   12061.60134719  .00019589  00000-0  24753-3 0  1124
2 25544 051.6415 301.5814 0017720 106.9991 253.3471 15.58676725165344
CO-58
1 28895U 05043F   12060.63612906  .00000663  00000-0  14562-3 0 01129
2 28895 097.9329 291.5897 0018609 129.9068 230.3773 14.60498246337814
FALCON
1 30776U 07006E   12060.88014392  .00003373  00000-0  22517-3 0 03024
2 30776 035.4321 217.9662 0001145 144.0388 216.0406 15.06708017273900
MAST
1 31126U 07012K   12060.98241875  .00000457  00000-0  11192-3 0 04028
2 31126 097.8792 078.3997 0095093 087.8923 273.3161 14.54044469258541
CAPE1
1 31130U 07012P   12060.58192933  .00000431  00000-0  10791-3 0 04104
2 31130 097.8870 074.4787 0103167 101.5105 259.7689 14.52782108258006
COMPASS
1 32787U 08021E   12060.83381684  .00001707  00000-0  21318-3 0  2365
2 32787 097.8134 124.5365 0016213 058.4047 301.8737 14.83554968207740
AAUSAT2
1 32788U 08021F   12060.82564694  .00002066  00000-0  25500-3 0  2286
2 32788 097.8134 124.8526 0016024 059.1379 301.1396 14.83839776207768
DO-64
1 32789U 08021G   12060.83607568  .00003163  00000-0  37613-3 0  2429
2 32789 097.8250 126.5048 0015762 056.4007 303.8702 14.85019263207798
CO-66
1 32791U 08021J   12060.64871676  .00001152  00000-0  14773-3 0 02309
2 32791 097.8137 124.1752 0016773 057.7563 302.5281 14.83049885207659
RS-30
1 32953U 08025A   12061.27462518  .00000010  00000-0  00000 0 0  5684
2 32953 082.5071 002.2400 0018169 180.0752 180.0330 12.43021231171152
TACSAT-3
1 35001U 09028A   12060.96391961  .00128461  00000-0  76465-3 0 08881
2 35001 040.4484 024.6620 0009162 219.7324 140.2889 15.76685328157311
PHARMSAT
1 35002U 09028B   12060.29661920  .00051521  00000-0  48269-3 0 08156
2 35002 040.4665 034.4043 0005388 340.6133 019.4477 15.66302815157157
METEOR-M
1 35865U 09049A   12060.91989556 -.00000025  00000-0  85976-5 0 01901
2 35865 098.6692 117.2075 0002910 022.3588 337.7716 14.21856202127210
RS-38
1 35869U 09049E   12061.37881515  .00000021  00000-0  29239-4 0  1995
2 35869 098.6661 117.6711 0004894 014.5570 345.5749 14.22056240127294
JUGNU
1 37839U 11058B   12058.86066747  .00000619  00000-0  19019-3 0 00984
2 37839 019.9636 306.6131 0019653 088.0494 272.2161 14.12028722019632
SRMSAT
1 37841U 11058D   12060.03897193  .00000264  00000-0  00000-0 0 00990
2 37841 019.9756 302.1964 0011552 073.3143 286.8600 14.10117785019771
RAX-2
1 37853U 11061D   12060.98411438  .00005506  00000-0  44681-3 0 01154
2 37853 101.7140 051.9824 0250769 299.1428 058.4883 14.79011983018407
AUBIESAT
1 37854U 11061E   12060.89654672  .00006067  00000-0  48569-3 0 01178
2 37854 101.7173 051.9680 0251218 298.8110 058.8083 14.79329377018379
HRBE
1 37855U 11061F   12060.96887760  .00005683  00000-0  45603-3 0 01228
2 37855 101.7198 052.0630 0251726 298.7699 058.8444 14.79226339018385
RS-39
1 38051U 11062C   12061.34595031  .00007417  00000-0  32918-3 0  1107
2 38051 051.6515 313.0075 0011580 014.4656 095.3376 15.22503962  5533
/EX


More information about the Keps mailing list